Location: Newark
(35.0589°N, 135.9944°E)
Time: 08:57:47
(UTC+00:00)

ISS - Visible Passes

Search period start: 19 September 2019 00:00
Search period end: 29 September 2019 00:00
Orbit: 411 x 421 km, 51.6° (Epoch: 19 September)

Date Brightness Start Highest point End Pass type
(mag) Time Alt. Az. Time Alt. Az. Time Alt. Az.
19 Sep -2.2 10:51:25 10° WSW 10:54:27 32° NW 10:54:31 32° NNW visible
20 Sep -3.3 10:02:40 10° WSW 10:05:56 59° NW 10:08:44 13° NE visible
21 Sep -1.0 10:52:37 10° WNW 10:54:33 14° NNW 10:55:40 13° N visible
22 Sep -1.4 10:03:15 10° W 10:05:54 21° NNW 10:08:32 10° NNE visible
23 Sep -2.2 09:14:13 10° WSW 09:17:18 35° NW 09:20:24 10° NNE visible
24 Sep -0.7 10:05:15 10° NW 10:06:03 11° NNW 10:06:51 10° N visible
25 Sep -1.0 09:15:15 10° WNW 09:17:18 15° NNW 09:19:22 10° N visible
